Novato, CA

1:27 PM PST on January 20, 2018 (GMT -0800)
Gnoss

Weather History for KDVO - May, 2014

Change the Weather History Date:

Saturday, May 3, 2014

  Actual Average (KAPC) Record (KAPC)
Temperature  
Mean Temperature 57 °F -  
Max Temperature 66 °F 75 °F 91 °F (2017)
Min Temperature 48 °F 49 °F 36 °F (2008)
Degree Days  
Heating Degree Days 8    
Growing Degree Days 7 (Base 50)    
Moisture  
Dew Point 48 °F    
Average Humidity 71    
Maximum Humidity 100    
Minimum Humidity 49    
Precipitation  
Precipitation 0.00 in - - ()
Sea Level Pressure  
Sea Level Pressure 30.01 in    
Wind  
Wind Speed 7 mph (West)    
Max Wind Speed 23 mph    
Max Gust Speed 34 mph    
Visibility 10 miles    
Events      
Averages and records for this station are not official NWS values.
T = Trace of Precipitation, MM = Missing Value Source: NWS Daily Summary

Daily Weather History Graph

Daily Weather History Graph

Search for Another Location

Airport or City:

Trip Planner

Search our weather history database for the weather conditions in past years. The results will help you decide how hot, cold, wet, or windy it might be!

Date:

Astronomy

May. 03, 2014 Rise Set
Actual Time 6:11 AM PDT 8:03 PM PDT
Civil Twilight 5:42 AM PDT 8:32 PM PDT
Nautical Twilight 5:08 AM PDT 9:06 PM PDT
Astronomical Twilight 4:31 AM PDT 9:44 PM PDT
Moon 9:46 AM PDT (5/3) No Moon Set
Length of Visible Light 14h 49m
Length of Day
13h 51m
Waxing Crescent, 20% of the Moon is Illuminated
May 3
Waxing Crescent
May 6
First Quarter
May 14
Full
May 21
Last Quarter
May 28
New

Hourly Weather History & Observations

Time (PDT) Temp. Dew Point Humidity Pressure Visibility Wind Dir Wind Speed Gust Speed Precip Events Conditions
12:15 AM 53.6 °F 50.0 °F 88% 30.05 in 10.0 mi ENE 4.6 mph - N/A   Clear
12:35 AM 51.8 °F 50.0 °F 94% 30.04 in 10.0 mi NE 4.6 mph - N/A   Clear
12:55 AM 51.8 °F 50.0 °F 94% 30.04 in 10.0 mi Calm Calm - N/A   Clear
1:15 AM 50.0 °F 50.0 °F 100% 30.04 in 10.0 mi Calm Calm - N/A   Clear
1:35 AM 50.0 °F 50.0 °F 100% 30.04 in 10.0 mi North 4.6 mph - N/A   Clear
1:55 AM 50.0 °F 50.0 °F 100% 30.04 in 10.0 mi Calm Calm - N/A   Clear
2:15 AM 50.0 °F 50.0 °F 100% 30.04 in 10.0 mi Calm Calm - N/A   Clear
2:35 AM 50.0 °F 50.0 °F 100% 30.03 in 10.0 mi Calm Calm - N/A   Clear
2:55 AM 50.0 °F 50.0 °F 100% 30.03 in 10.0 mi Calm Calm - N/A   Clear
3:15 AM 50.0 °F 50.0 °F 100% 30.03 in 10.0 mi Calm Calm - N/A   Clear
3:35 AM 50.0 °F 50.0 °F 100% 30.03 in 9.0 mi Calm Calm - N/A   Clear
3:55 AM 50.0 °F 48.2 °F 94% 30.03 in 10.0 mi Calm Calm - N/A   Clear
4:15 AM 50.0 °F 48.2 °F 94% 30.03 in 10.0 mi Calm Calm - N/A   Clear
4:35 AM 50.0 °F 48.2 °F 94% 30.03 in 10.0 mi Calm Calm - N/A   Clear
4:55 AM 48.2 °F 48.2 °F 100% 30.04 in 3.0 mi Calm Calm - N/A   Clear
5:15 AM 50.0 °F 48.2 °F 94% 30.03 in 10.0 mi Calm Calm - N/A   Clear
5:55 AM 53.6 °F 48.2 °F 82% 30.02 in 10.0 mi SSW 9.2 mph - N/A   Clear
6:15 AM 51.8 °F 48.2 °F 88% 30.02 in 10.0 mi SW 9.2 mph - N/A   Clear
6:35 AM 50.0 °F 48.2 °F 94% 30.03 in 10.0 mi NNW 3.5 mph - N/A   Clear
6:55 AM 50.0 °F 48.2 °F 94% 30.03 in 10.0 mi WNW 3.5 mph - N/A   Clear
7:15 AM 51.8 °F 48.2 °F 88% 30.03 in 10.0 mi Calm Calm - N/A   Clear
7:35 AM 55.4 °F 48.2 °F 77% 30.04 in 10.0 mi West 3.5 mph - N/A   Clear
7:55 AM 55.4 °F 50.0 °F 82% 30.04 in 10.0 mi NW 3.5 mph - N/A   Clear
8:15 AM 55.4 °F 48.2 °F 77% 30.04 in 10.0 mi WNW 6.9 mph - N/A   Clear
8:35 AM 57.2 °F 50.0 °F 77% 30.04 in 10.0 mi NW 5.8 mph - N/A   Clear
9:15 AM 59.0 °F 48.2 °F 67% 30.03 in 10.0 mi Calm Calm - N/A   Clear
9:35 AM 60.8 °F 50.0 °F 68% 30.03 in 10.0 mi NNE 3.5 mph - N/A   Clear
9:55 AM 60.8 °F 50.0 °F 68% 30.03 in 10.0 mi Calm Calm - N/A   Partly Cloudy
10:15 AM 62.6 °F 50.0 °F 63% 30.03 in 10.0 mi West 4.6 mph - N/A   Partly Cloudy
10:35 AM 64.4 °F 50.0 °F 59% 30.03 in 10.0 mi WNW 8.1 mph - N/A   Partly Cloudy
10:55 AM 64.4 °F 50.0 °F 59% 30.03 in 10.0 mi West 11.5 mph 17.3 mph N/A   Clear
11:15 AM 64.4 °F 50.0 °F 59% 30.03 in 10.0 mi West 8.1 mph 18.4 mph N/A   Clear
11:35 AM 64.4 °F 50.0 °F 59% 30.03 in 10.0 mi West 12.7 mph 20.7 mph N/A   Clear
11:55 AM 66.2 °F 50.0 °F 56% 30.02 in 10.0 mi WSW 15.0 mph 20.7 mph N/A   Clear
12:15 PM 66.2 °F 50.0 °F 56% 30.03 in 10.0 mi West 9.2 mph 20.7 mph N/A   Clear
12:35 PM 66.2 °F 50.0 °F 56% 30.02 in 10.0 mi WSW 12.7 mph 20.7 mph N/A   Clear
12:55 PM 66.2 °F 50.0 °F 56% 30.02 in 10.0 mi West 13.8 mph 19.6 mph N/A   Clear
1:15 PM 66.2 °F 50.0 °F 56% 30.01 in 10.0 mi West 10.4 mph 23.0 mph N/A   Clear
1:35 PM 66.2 °F 48.2 °F 52% 30.01 in 10.0 mi West 12.7 mph 19.6 mph N/A   Clear
1:55 PM 66.2 °F 48.2 °F 52% 30.01 in 10.0 mi West 13.8 mph 19.6 mph N/A   Clear
2:15 PM 66.2 °F 48.2 °F 52% 30.01 in 10.0 mi WSW 20.7 mph 24.2 mph N/A   Clear
2:35 PM 66.2 °F 48.2 °F 52% 30.00 in 10.0 mi West 23.0 mph 28.8 mph N/A   Clear
2:55 PM 66.2 °F 48.2 °F 52% 29.99 in 10.0 mi WSW 21.9 mph 28.8 mph N/A   Clear
3:15 PM 66.2 °F 46.4 °F 49% 29.99 in 10.0 mi West 20.7 mph 31.1 mph N/A   Clear
3:35 PM 66.2 °F 46.4 °F 49% 29.99 in 10.0 mi West 21.9 mph 31.1 mph N/A   Clear
3:55 PM 66.2 °F 46.4 °F 49% 29.98 in 10.0 mi West 19.6 mph 29.9 mph N/A   Clear
4:15 PM 66.2 °F 48.2 °F 52% 29.99 in 10.0 mi West 16.1 mph 28.8 mph N/A   Clear
4:35 PM 64.4 °F 46.4 °F 52% 29.99 in 10.0 mi West 17.3 mph 31.1 mph N/A   Clear
4:55 PM 64.4 °F 46.4 °F 52% 29.99 in 10.0 mi West 18.4 mph 26.5 mph N/A   Clear
5:15 PM 64.4 °F 46.4 °F 52% 29.99 in 10.0 mi West 12.7 mph 25.3 mph N/A   Clear
5:35 PM 64.4 °F 46.4 °F 52% 29.99 in 10.0 mi WNW 13.8 mph 20.7 mph N/A   Clear
5:55 PM 64.4 °F 44.6 °F 49% 29.99 in 10.0 mi WNW 3.5 mph - N/A   Clear
6:15 PM 62.6 °F 46.4 °F 55% 29.99 in 10.0 mi WSW 8.1 mph - N/A   Clear
6:35 PM 62.6 °F 46.4 °F 55% 29.99 in 10.0 mi WNW 6.9 mph - N/A   Clear
6:55 PM 60.8 °F 48.2 °F 63% 29.98 in 10.0 mi WSW 11.5 mph 18.4 mph N/A   Clear
7:15 PM 59.0 °F 48.2 °F 67% 29.98 in 10.0 mi West 16.1 mph 26.5 mph N/A   Clear
7:35 PM 59.0 °F 48.2 °F 67% 29.97 in 10.0 mi West 18.4 mph 29.9 mph N/A   Clear
7:55 PM 59.0 °F 48.2 °F 67% 29.98 in 10.0 mi West 20.7 mph 31.1 mph N/A   Clear
8:15 PM 57.2 °F 48.2 °F 72% 29.98 in 10.0 mi West 17.3 mph 28.8 mph N/A   Clear
8:35 PM 57.2 °F 46.4 °F 67% 29.98 in 10.0 mi West 17.3 mph 34.5 mph N/A   Clear
8:55 PM 57.2 °F 48.2 °F 72% 29.98 in 10.0 mi West 21.9 mph 28.8 mph N/A   Clear
9:15 PM 57.2 °F 46.4 °F 67% 29.99 in 10.0 mi West 11.5 mph 25.3 mph N/A   Clear
9:35 PM 57.2 °F 46.4 °F 67% 29.99 in 10.0 mi WSW 10.4 mph 21.9 mph N/A   Clear
9:55 PM 57.2 °F 46.4 °F 67% 30.00 in 10.0 mi West 10.4 mph 17.3 mph N/A   Clear
10:15 PM 57.2 °F 46.4 °F 67% 30.00 in 10.0 mi West 15.0 mph 25.3 mph N/A   Clear
10:35 PM 57.2 °F 46.4 °F 67% 30.00 in 10.0 mi West 12.7 mph 24.2 mph N/A   Clear
10:55 PM 57.2 °F 46.4 °F 67% 30.00 in 10.0 mi West 15.0 mph 27.6 mph N/A   Clear
11:15 PM 57.2 °F 46.4 °F 67% 30.00 in 10.0 mi West 16.1 mph 24.2 mph N/A   Clear
11:35 PM 57.2 °F 46.4 °F 67% 30.01 in 10.0 mi West 9.2 mph 21.9 mph N/A   Clear
11:55 PM 57.2 °F 48.2 °F 72% 30.01 in 10.0 mi West 11.5 mph 21.9 mph N/A   Clear